GW3137 Weather Reports


time (UTC)temp
C
wind
direction
speed
KPH
gust
KPH
rain 1hr
cm
rain 24hr
cm
rain mn
cm
humidity
%
barometer
mb
20260831040704 18 356 1.6 4.8 0.00 0.00 0.00 66 1017.4
20260831040204 18 355 3.2 8.0 0.00 0.00 0.00 66 1017.3
20260831033704 19 326 3.2 11.3 0.00 0.00 0.00 62 1017.3
20260831030203 20 343 1.6 4.8 0.00 0.00 0.00 59 1017.1
20260831023704 20 299 3.2 4.8 0.00 0.00 0.00 56 1017.2
20260831020704 21 331 3.2 11.3 0.00 0.00 0.00 55 1017.4
20260831020204 21 279 3.2 16.1 0.00 0.00 0.00 55 1017.4
20260831013703 22 19 1.6 4.8 0.00 0.00 0.00 52 1017.5
20260831013204 22 306 3.2 14.5 0.00 0.00 0.00 50 1017.5
20260831010704 23 284 3.2 4.8 0.00 0.00 0.00 49 1017.7
20260831010204 23 287 3.2 12.9 0.00 0.00 0.00 49 1017.7
20260831003704 23 227 1.6 9.7 0.00 0.00 0.00 48 1017.9
20260831003204 23 316 3.2 12.9 0.00 0.00 0.00 48 1017.9
20260831000704 22 352 3.2 9.7 0.00 0.00 0.00 50 1018.1
20260831000204 22 277 4.8 12.9 0.00 0.00 0.00 50 1018.2
20260830233704 23 26 3.2 8.0 0.00 0.00 0.00 52 1018.4
20260830233204 22 291 3.2 12.9 0.00 0.00 0.00 52 1018.3
20260830230704 23 22 4.8 14.5 0.00 0.00 0.00 51 1018.4
20260830230204 23 246 6.4 16.1 0.00 0.00 0.00 51 1018.4
20260830223704 22 287 8.0 16.1 0.00 0.00 0.00 53 1018.8
20260830223204 22 268 6.4 16.1 0.00 0.00 0.00 52 1018.8
20260830220704 23 167 4.8 9.7 0.00 0.00 0.00 52 1018.8
20260830220204 23 219 4.8 16.1 0.00 0.00 0.00 52 1018.9
20260830213203 22 264 4.8 11.3 0.00 0.00 0.00 56 1019.3
20260830210204 22 277 4.8 19.3 0.00 0.00 0.00 55 1019.5
20260830203704 21 75 3.2 8.0 0.00 0.00 0.00 58 1019.7
20260830203203 21 55 1.6 12.9 0.00 0.00 0.00 59 1019.7
20260830200703 20 97 4.8 9.7 0.00 0.00 0.00 62 1020.0
20260830200204 19 160 8.0 12.9 0.00 0.00 0.00 63 1020.0
20260830193704 18 171 3.2 4.8 0.00 0.00 0.00 65 1020.2
20260830193204 19 259 1.6 14.5 0.00 0.00 0.00 64 1020.1
20260830190704 19 236 6.4 14.5 0.00 0.00 0.00 64 1020.2
20260830183204 18 206 4.8 14.5 0.00 0.00 0.00 67 1020.2
20260830180703 17 166 4.8 9.7 0.00 0.00 0.00 70 1020.4
20260830173204 17 290 1.6 11.3 0.00 0.00 0.00 70 1020.4
20260830170704 16 169 1.6 4.8 0.00 0.00 0.00 71 1020.4
20260830163704 16 293 3.2 4.8 0.00 0.00 0.00 73 1020.4
20260830163204 16 158 6.4 11.3 0.00 0.00 0.00 72 1020.4
20260830160703 15 215 1.6 4.8 0.00 0.00 0.00 75 1020.5
20260830153704 15 198 3.2 9.7 0.00 0.05 0.00 76 1020.4
20260830153204 15 241 1.6 8.0 0.00 0.05 0.00 76 1020.4
20260830150204 15 123 1.6 4.8 0.00 0.08 0.00 78 1020.4
20260830143704 14 107 1.6 3.2 0.00 0.23 0.00 80 1020.4
20260830143205 14 107 0.0 3.2 0.00 0.25 0.00 81 1020.3
20260830140704 13 107 0.0 4.8 0.00 0.76 0.00 82 1020.0
20260830140204 13 107 0.0 4.8 0.00 0.79 0.00 82 1019.9
20260830133704 13 111 1.6 4.8 0.00 0.91 0.00 83 1019.9
20260830133204 13 111 1.6 3.2 0.00 0.91 0.00 83 1019.9
20260830130704 13 99 1.6 4.8 0.00 0.91 0.00 83 1019.9
20260830130203 13 99 1.6 4.8 0.00 0.91 0.00 83 1019.8
20260830123704 13 139 0.0 1.6 0.00 0.91 0.00 82 1019.9
20260830123204 13 139 1.6 4.8 0.00 0.91 0.00 82 1019.9
20260830120703 14 139 0.0 1.6 0.00 0.91 0.00 82 1019.9
20260830120204 14 139 0.0 3.2 0.00 0.91 0.00 82 1019.9
20260830113204 14 139 1.6 3.2 0.00 0.91 0.00 82 1019.8
20260830110704 13 139 1.6 4.8 0.00 0.91 0.00 82 1019.8
20260830110204 13 139 1.6 4.8 0.00 0.91 0.00 82 1019.7
20260830103704 13 127 0.0 3.2 0.00 0.91 0.00 83 1019.8
20260830103204 13 134 3.2 4.8 0.00 0.91 0.00 82 1019.8
20260830100704 13 113 0.0 0.0 0.00 0.91 0.00 83 1019.7
20260830100203 13 132 1.6 4.8 0.00 0.91 0.00 83 1019.6
20260830093704 13 126 1.6 4.8 0.00 0.91 0.00 82 1019.6
20260830093204 13 80 0.0 4.8 0.00 0.91 0.00 82 1019.6
20260830090704 14 115 1.6 3.2 0.00 0.91 0.00 81 1019.7
20260830090204 14 116 1.6 4.8 0.00 0.91 0.00 81 1019.7
20260830083704 13 97 1.6 4.8 0.00 0.91 0.00 81 1019.6
20260830083204 13 90 1.6 4.8 0.00 0.91 0.00 80 1019.5
20260830080704 14 147 1.6 4.8 0.00 0.91 0.00 79 1019.4
20260830080204 14 125 3.2 4.8 0.00 0.91 0.00 79 1019.4
20260830073704 15 128 1.6 4.8 0.00 0.91 0.00 78 1019.4
20260830073204 15 122 3.2 9.7 0.00 0.91 0.00 77 1019.4
20260830070204 15 173 0.0 8.0 0.00 0.91 0.00 76 1019.2
20260830063704 15 178 3.2 4.8 0.00 0.91 0.91 75 1019.1
20260830063204 15 189 1.6 14.5 0.00 0.91 0.91 75 1019.1
20260830060704 16 196 3.2 11.3 0.00 0.91 0.91 74 1018.9
20260830060204 16 234 3.2 14.5 0.00 0.91 0.91 73 1019.0
20260830053204 16 206 3.2 14.5 0.00 0.91 0.91 71 1019.0
20260830050703 17 197 4.8 22.5 0.00 0.91 0.91 69 1018.8
20260830050204 17 196 3.2 19.3 0.00 0.91 0.91 68 1018.8
20260830043704 17 195 4.8 14.5 0.00 0.91 0.91 66 1018.7
20260830043204 17 171 8.0 19.3 0.00 0.91 0.91 66 1018.7